[[{"header":{"parameterUnit":"m.s-1","parameterCategory":1,"la1":30.2991,"la2":30.254,"lo1":-89.0895,"lo2":-89.0444,"dy":0.0017,"dx":0.0017,"nx":28,"ny":28,"refTime":"2025-06-17T09:00:00:Z","depth":0,"parameterNumber":2,"parameterNumberName":"U-component_of_WINDS"},"data":[0,0,0,0,0,0,0,0,0,0,0,0,0,0,0,0,0,0,0,0,0,0,0,0,0,0,0,0,0,0,0,0,0,0,0,0,0,0,0,0,0,0,0,0,0,0,0,0,0,0,0,0,0,0,0,0,0,0,-0.1617,-0.1618,0,-0.1651,-0.1651,-0.1651,-0.1675,-0.1675,-0.1675,-0.1676,-0.171,-0.171,-0.1711,0,0,0,0,0,0,0,0,0,0,0,0,0,-0.1574,-0.1575,-0.1617,-0.1618,-0.1618,-0.1651,-0.1651,-0.1651,-0.1675,-0.1675,-0.1675,-0.1676,-0.1709,-0.171,-0.1711,0,0,0,0,0,0,0,0,0,0,0,0,0,-0.1599,-0.1575,-0.1617,-0.1634,-0.1635,-0.165,-0.1651,-0.1652,-0.1675,-0.1675,-0.1675,-0.1676,-0.1709,-0.171,-0.1711,-0.1712,0,0,-0.1715,-0.1715,0,0,0,0,0,0,0,0,-0.1597,-0.16,-0.1631,-0.1633,-0.1635,-0.1659,-0.1648,-0.1672,-0.1675,-0.166,-0.1676,-0.1676,-0.1692,-0.1695,-0.1701,-0.1714,-0.1715,-0.1715,-0.1715,-0.1716,-0.1716,0,0,0,0,0,0,0,-0.1596,-0.1599,-0.163,-0.1631,-0.1634,-0.164,-0.1643,-0.1653,-0.1674,-0.1661,-0.1663,-0.1667,-0.1694,-0.1699,-0.1702,-0.1716,-0.1715,-0.1716,-0.1716,-0.1717,-0.1733,-0.1733,0,0,0,0,0,0,-0.1591,-0.1598,-0.1629,-0.1631,-0.1616,-0.164,-0.1644,-0.1651,-0.1674,-0.1678,-0.1666,-0.1668,-0.1697,-0.17,-0.1703,-0.1707,-0.1716,-0.1717,-0.1717,-0.1734,-0.1733,-0.1733,0,0,0,0,0,0,-0.159,-0.1594,-0.1628,-0.1615,-0.162,-0.1641,-0.1648,-0.1651,-0.1657,-0.1678,-0.1682,-0.1669,-0.1698,-0.1701,-0.171,-0.1708,-0.1717,-0.1718,-0.1734,-0.1733,-0.1733,-0.1714,0,0,0,0,0,0,-0.1589,-0.1593,-0.1594,-0.1615,-0.162,-0.1634,-0.1647,-0.1652,-0.1659,-0.1661,-0.1681,-0.1685,-0.1698,-0.1708,-0.1711,-0.171,-0.1719,-0.1734,-0.1734,-0.1733,-0.1715,-0.1713,-0.1711,0,0,0,0,0,-0.1587,-0.1587,-0.1594,-0.1598,-0.1621,-0.1634,-0.1638,-0.1653,-0.1659,-0.166,-0.1673,-0.1684,-0.1708,-0.1709,-0.1712,-0.1711,-0.1734,-0.1734,-0.1733,-0.1715,-0.1713,-0.1711,0,0,0,0,0,0,-0.1565,-0.159,-0.1598,-0.1604,-0.1617,-0.1638,-0.164,-0.165,-0.1662,-0.1663,-0.1682,-0.1686,-0.1693,-0.1703,-0.1704,-0.1714,-0.1722,-0.1723,-0.1708,-0.1706,-0.1704,-0.1702,-0.172,0,0,0,0,0,-0.1561,-0.1569,-0.159,-0.1594,-0.16,-0.1619,-0.1625,-0.1636,-0.165,-0.1656,-0.167,-0.1683,-0.1694,-0.17,-0.1711,-0.1716,-0.1721,-0.1717,-0.1715,-0.1714,-0.1714,-0.1719,-0.1717,-0.1731,-0.1731,-0.1731,0,0,-0.1552,-0.1567,-0.1571,-0.159,-0.1601,-0.161,-0.1623,-0.1631,-0.1638,-0.1657,-0.1666,-0.1677,-0.1693,-0.1701,-0.1705,-0.1709,-0.1711,-0.1713,-0.1712,-0.1713,-0.1718,-0.1717,-0.1715,-0.1731,-0.1731,-0.1731,0,0,-0.1541,-0.1552,-0.1557,-0.1568,-0.1585,-0.1598,-0.1599,-0.1619,-0.1627,-0.1637,-0.1652,-0.166,-0.1677,-0.1689,-0.1697,-0.1691,-0.1701,-0.1694,-0.1685,-0.1689,-0.1688,-0.1687,-0.1686,-0.1685,-0.1694,-0.1694,-0.1693,0,-0.1528,-0.1541,-0.1558,-0.1566,-0.1574,-0.1592,-0.1597,-0.1607,-0.1626,-0.1632,-0.1637,-0.166,-0.1672,-0.1683,-0.1681,-0.1687,-0.1689,-0.1692,-0.1687,-0.1686,-0.1685,-0.1684,-0.1684,-0.1693,-0.1693,-0.1693,-0.1693,0,-0.1525,-0.1534,-0.1536,-0.1555,-0.1563,-0.1569,-0.1587,-0.1594,-0.1605,-0.1617,-0.1627,-0.1642,-0.1657,-0.166,-0.167,-0.1673,-0.1675,-0.1683,-0.1691,-0.1683,-0.1682,-0.1682,-0.1691,-0.1691,-0.1692,-0.1692,0,0,-0.15,-0.1529,-0.1529,-0.1539,-0.1559,-0.1567,-0.1574,-0.1589,-0.1594,-0.1607,-0.1614,-0.1629,-0.1637,-0.1646,-0.1658,-0.1661,-0.1657,-0.1669,-0.167,-0.1667,-0.1661,-0.1656,-0.1655,-0.1664,-0.1664,-0.1664,-0.166,0,-0.1493,-0.1507,-0.1523,-0.1532,-0.1541,-0.1558,-0.1565,-0.1578,-0.159,-0.16,-0.1613,-0.1623,-0.1632,-0.1638,-0.1642,-0.1656,-0.1656,-0.1657,-0.1671,-0.1672,-0.1667,-0.1654,-0.1648,-0.1644,-0.166,-0.166,-0.166,0,-0.1486,-0.1498,-0.1508,-0.1529,-0.1533,-0.1539,-0.1554,-0.1563,-0.1579,-0.1587,-0.1598,-0.161,-0.162,-0.1627,-0.164,-0.164,-0.1647,-0.1655,-0.1656,-0.1658,-0.1665,-0.1657,-0.1643,-0.1642,-0.166,-0.166,-0.166,0,-0.1468,-0.1487,-0.1496,-0.1503,-0.1527,-0.1531,-0.1541,-0.1557,-0.1565,-0.1579,-0.1584,-0.1598,-0.1606,-0.1617,-0.1633,-0.1637,-0.1645,-0.1653,-0.1653,-0.1652,-0.1654,-0.1654,-0.1641,-0.1657,-0.1657,-0.1657,-0.1657,0,-0.1458,-0.1464,-0.1488,-0.1494,-0.1501,-0.1519,-0.1525,-0.1537,-0.1552,-0.156,-0.1576,-0.1583,-0.1604,-0.1614,-0.1627,-0.1637,-0.164,-0.1647,-0.1651,-0.1646,-0.1645,-0.1651,-0.1652,-0.1657,-0.1657,-0.1657,-0.1657,0,-0.1439,-0.1456,-0.1467,-0.1489,-0.1494,-0.1499,-0.1518,-0.1524,-0.1537,-0.1547,-0.1551,-0.1571,-0.1584,-0.1601,-0.1619,-0.1628,-0.1636,-0.1641,-0.1631,-0.1633,-0.1631,-0.1631,-0.1623,-0.1623,-0.1638,-0.1638,-0.1638,0,-0.1432,-0.1437,-0.146,-0.1466,-0.1476,-0.1487,-0.1495,-0.1513,-0.1522,-0.1541,-0.1545,-0.1559,-0.1571,-0.1591,-0.1607,-0.1621,-0.1627,-0.1623,-0.163,-0.1625,-0.1628,-0.1628,-0.1629,-0.1622,-0.1622,-0.1621,-0.1621,0,-0.1418,-0.1427,-0.1438,-0.1453,-0.1462,-0.1475,-0.1488,-0.1493,-0.1514,-0.1522,-0.1536,-0.1545,-0.1564,-0.1578,-0.1595,-0.1605,-0.1617,-0.1619,-0.162,-0.1615,-0.161,-0.1613,-0.1627,-0.1619,-0.1619,-0.162,-0.162,-0.162,-0.1406,-0.1411,-0.1428,-0.1441,-0.1452,-0.1465,-0.1472,-0.1486,-0.1497,-0.1514,-0.1524,-0.1537,-0.1554,-0.1577,-0.1588,-0.1599,-0.1603,-0.1604,-0.1604,-0.1604,-0.1603,-0.1607,-0.1602,-0.1602,-0.1602,-0.1602,-0.1602,0,-0.1393,-0.1405,-0.1416,-0.1435,-0.1445,-0.1455,-0.147,-0.1478,-0.1489,-0.1504,-0.1515,-0.1531,-0.1545,-0.1563,-0.1578,-0.1584,-0.1589,-0.1587,-0.1587,-0.159,-0.1598,-0.1596,-0.1582,-0.1582,-0.1582,-0.1582,-0.1582,-0.1582,-0.1388,-0.1398,-0.1408,-0.1424,-0.1436,-0.1449,-0.1457,-0.1469,-0.1481,-0.1497,-0.1509,-0.1521,-0.1537,-0.1553,-0.1567,-0.1572,-0.1577,-0.1573,-0.158,-0.1587,-0.1589,-0.1591,-0.1589,-0.1574,-0.1574,-0.1571,-0.1571,-0.1571]},{"header":{"parameterUnit":"m.s-1","parameterCategory":1,"la1":30.2991,"la2":30.254,"lo1":-89.0895,"lo2":-89.0444,"dy":0.0017,"dx":0.0017,"nx":28,"ny":28,"refTime":"2025-06-17T09:00:00:Z","depth":0,"parameterNumber":3,"parameterNumberName":"V-component_of_WINDS"},"data":[0,0,0,0,0,0,0,0,0,0,0,0,0,0,0,0,0,0,0,0,0,0,0,0,0,0,0,0,0,0,0,0,0,0,0,0,0,0,0,0,0,0,0,0,0,0,0,0,0,0,0,0,0,0,0,0,0,0,6.3796,6.3797,0,6.3905,6.3906,6.3907,6.3845,6.3842,6.3839,6.3836,6.3941,6.3946,6.3952,0,0,0,0,0,0,0,0,0,0,0,0,0,6.3524,6.3529,6.3795,6.3797,6.3798,6.3904,6.3906,6.3907,6.3845,6.3841,6.3838,6.3834,6.3939,6.3945,6.3952,0,0,0,0,0,0,0,0,0,0,0,0,0,6.3638,6.3531,6.3795,6.378,6.378,6.3904,6.3906,6.3908,6.3846,6.3841,6.3837,6.3833,6.3937,6.3945,6.3953,6.4096,0,0,6.3979,6.3983,0,0,0,0,0,0,0,0,6.3632,6.3648,6.3781,6.3781,6.3781,6.3857,6.3849,6.3971,6.3847,6.3821,6.3836,6.383,6.3916,6.3926,6.3956,6.4101,6.4106,6.398,6.3985,6.3988,6.3991,0,0,0,0,0,0,0,6.3624,6.3643,6.3838,6.3783,6.3783,6.3765,6.3776,6.3871,6.3892,6.3823,6.3818,6.3833,6.3915,6.3948,6.3958,6.4107,6.3979,6.3987,6.3992,6.3995,6.4371,6.4375,0,0,0,0,0,0,6.3618,6.3637,6.3835,6.3842,6.3694,6.3773,6.3786,6.3837,6.3891,6.3895,6.3836,6.3829,6.3936,6.3948,6.3961,6.413,6.3988,6.3996,6.4001,6.4366,6.4372,6.4377,0,0,0,0,0,0,6.3613,6.3637,6.383,6.3738,6.3762,6.3783,6.3841,6.3841,6.3874,6.3902,6.3904,6.3867,6.3933,6.395,6.4063,6.4133,6.4,6.4008,6.436,6.4368,6.4374,6.447,0,0,0,0,0,0,6.3605,6.3635,6.3692,6.374,6.3767,6.3933,6.3845,6.3847,6.389,6.3882,6.3931,6.3934,6.393,6.4051,6.4071,6.4142,6.4014,6.4354,6.4363,6.4372,6.446,6.4479,6.4496,0,0,0,0,0,6.3596,6.3714,6.3695,6.3719,6.3839,6.3937,6.3952,6.3947,6.3896,6.3951,6.3968,6.3933,6.4122,6.4063,6.4085,6.416,6.4349,6.4361,6.4371,6.4452,6.4476,6.4495,0,0,0,0,0,0,6.3672,6.372,6.37,6.3838,6.3884,6.3927,6.3997,6.3973,6.4033,6.4022,6.4011,6.4023,6.414,6.4161,6.4094,6.4299,6.4227,6.4243,6.4281,6.4303,6.4321,6.4312,6.4021,0,0,0,0,0,6.3705,6.3783,6.382,6.3938,6.3962,6.3976,6.4019,6.4011,6.4057,6.4076,6.4101,6.4146,6.4214,6.426,6.4325,6.4463,6.4471,6.4525,6.4543,6.4557,6.4571,6.4641,6.4665,6.4413,6.4413,6.4413,0,0,6.3773,6.3809,6.3859,6.3954,6.3989,6.4067,6.3993,6.408,6.4136,6.4088,6.4197,6.4217,6.4265,6.439,6.4447,6.4411,6.4642,6.4571,6.4583,6.4588,6.4655,6.4679,6.47,6.4421,6.442,6.4418,0,0,6.3938,6.3975,6.4076,6.4112,6.4166,6.4174,6.4198,6.4244,6.4256,6.4365,6.433,6.4395,6.4516,6.4551,6.4584,6.4759,6.4727,6.4781,6.4872,6.4941,6.4961,6.4979,6.5038,6.506,6.4794,6.4794,6.4795,0,6.4016,6.4135,6.413,6.4219,6.426,6.4221,6.4321,6.4356,6.4428,6.4455,6.4415,6.4563,6.4593,6.4725,6.4767,6.4797,6.4821,6.4775,6.4959,6.4977,6.4993,6.5049,6.5072,6.48,6.48,6.4799,6.4799,0,6.4226,6.4309,6.4384,6.4456,6.4505,6.4599,6.4604,6.4654,6.4641,6.4652,6.4761,6.4796,6.4866,6.4896,6.4885,6.5025,6.5001,6.4961,6.4888,6.5023,6.5075,6.5097,6.4809,6.4807,6.4805,6.4803,0,0,6.4443,6.451,6.4537,6.4567,6.4623,6.4686,6.4776,6.4846,6.4888,6.4938,6.5011,6.5112,6.5074,6.5112,6.5103,6.5164,6.5296,6.5115,6.5116,6.5146,6.545,6.5479,6.5504,6.5276,6.528,6.5284,6.5445,0,6.4609,6.477,6.4766,6.4914,6.4988,6.4951,6.5029,6.507,6.5082,6.5144,6.5156,6.5227,6.5173,6.5195,6.5254,6.5268,6.5357,6.5257,6.5341,6.5344,6.5329,6.5532,6.5564,6.5714,6.5466,6.5469,6.5472,0,6.4826,6.4884,6.504,6.5082,6.5113,6.5184,6.5245,6.5307,6.535,6.5354,6.5396,6.5377,6.5464,6.539,6.5509,6.5441,6.5474,6.5486,6.5492,6.5498,6.5415,6.5542,6.5763,6.5784,6.5505,6.5502,6.55,0,6.4965,6.5082,6.519,6.5217,6.527,6.532,6.5343,6.5383,6.5424,6.5477,6.5503,6.5566,6.56,6.5647,6.5643,6.559,6.5762,6.5689,6.5765,6.5765,6.5802,6.58,6.6029,6.5828,6.5827,6.5827,6.5826,0,6.515,6.5246,6.5252,6.5319,6.5423,6.5416,6.5519,6.5538,6.5573,6.5639,6.561,6.5672,6.5665,6.5726,6.5724,6.582,6.5836,6.5839,6.5837,6.5841,6.584,6.5862,6.5851,6.5833,6.5831,6.583,6.5829,0,6.5323,6.5332,6.5446,6.5486,6.5498,6.5573,6.5606,6.5666,6.5675,6.5759,6.5778,6.5791,6.5862,6.5863,6.5944,6.5942,6.6059,6.6046,6.6045,6.6042,6.6117,6.6109,6.6367,6.6399,6.6179,6.6181,6.6183,0,6.544,6.5513,6.5561,6.5604,6.5631,6.5701,6.5743,6.5737,6.5782,6.5835,6.5889,6.5957,6.6011,6.6125,6.6139,6.62,6.6187,6.6273,6.6195,6.6196,6.6185,6.618,6.6186,6.6288,6.629,6.6292,6.6294,0,6.5646,6.5646,6.5709,6.5773,6.5824,6.5874,6.5919,6.5955,6.5955,6.6005,6.6078,6.612,6.6202,6.6269,6.6327,6.6347,6.632,6.6318,6.6338,6.6342,6.6338,6.6339,6.6084,6.6312,6.631,6.6309,6.6308,6.6307,6.5793,6.5854,6.5897,6.5967,6.6001,6.6044,6.6102,6.6118,6.6179,6.6247,6.6239,6.6319,6.6357,6.6432,6.6458,6.6518,6.6488,6.6518,6.6525,6.6532,6.6539,6.633,6.6529,6.6528,6.6528,6.6527,6.6527,0,6.5994,6.602,6.6085,6.615,6.6204,6.6175,6.6223,6.6269,6.6341,6.638,6.6434,6.6515,6.6579,6.6598,6.6659,6.6703,6.6691,6.6719,6.6715,6.6719,6.6564,6.654,6.6727,6.6727,6.6727,6.6727,6.6727,6.6727,6.6106,6.6208,6.6213,6.633,6.6354,6.6433,6.6463,6.6501,6.6532,6.6625,6.6678,6.6691,6.6721,6.6783,6.6839,6.6843,6.6865,6.6898,6.6896,6.6751,6.673,6.6711,6.6688,6.6903,6.6903,6.7045,6.7046,6.7047]}]]